DLH407 EVRA-ESSV

Flight info

Callsign DLH407
Flight time 1h 8m
Altitude 30000
Route LAPSA DCT DEREX DCT BGE DCT VEPAX
Aircraft B38M/M-SDE1FGHILORVWXY/HB1

Departure

Time 2026-04-28 14:50
Airport Riga International Airport (EVRA)

Arrival

Time 2026-04-28 15:58
Airport Visby Airport (ESSV)
Time Latitude Longitude Altitude Speed Heading
2026-04-28 14:34 56.92186 23.97749 46 ft 0 kts
2026-04-28 14:41 56.92181 23.97748 46 ft 2 kts
2026-04-28 14:41 56.92165 23.97745 46 ft 3 kts
2026-04-28 14:41 56.92146 23.97752 46 ft 3 kts 334°
2026-04-28 14:42 56.92131 23.97775 46 ft 3 kts 307°
2026-04-28 14:42 56.92122 23.97809 46 ft 3 kts 282°
2026-04-28 14:42 56.92121 23.97821 46 ft 0 kts 275°
2026-04-28 14:43 56.92121 23.97820 46 ft 0 kts 275°
2026-04-28 14:44 56.92121 23.97819 46 ft 0 kts 275°
2026-04-28 14:45 56.92123 23.97787 46 ft 5 kts 275°
2026-04-28 14:45 56.92128 23.97688 46 ft 11 kts 275°
2026-04-28 14:45 56.92135 23.97547 46 ft 9 kts 275°
2026-04-28 14:45 56.92135 23.97524 46 ft 1 kts 269°
2026-04-28 14:46 56.92123 23.97482 46 ft 9 kts 225°
2026-04-28 14:46 56.92005 23.97445 46 ft 25 kts 184°
2026-04-28 14:46 56.91829 23.97424 46 ft 25 kts 185°
2026-04-28 14:46 56.91642 23.97394 46 ft 29 kts 185°
2026-04-28 14:47 56.91435 23.97360 46 ft 30 kts 185°
2026-04-28 14:47 56.91211 23.97321 46 ft 33 kts 184°
2026-04-28 14:47 56.91016 23.97285 46 ft 22 kts 195°
2026-04-28 14:47 56.90864 23.97176 46 ft 25 kts 186°
2026-04-28 14:48 56.90719 23.97150 46 ft 14 kts 186°
2026-04-28 14:48 56.90644 23.97043 46 ft 6 kts 256°
2026-04-28 14:48 56.90643 23.97037 46 ft 1 kts 259°
2026-04-28 14:48 56.90641 23.96995 46 ft 5 kts 273°
2026-04-28 14:49 56.90649 23.96898 46 ft 9 kts 292°
2026-04-28 14:49 56.90695 23.96848 46 ft 9 kts 358°
2026-04-28 14:49 56.90708 23.96848 46 ft 0 kts
2026-04-28 14:49 56.90710 23.96848 46 ft 3 kts
2026-04-28 14:50 56.90957 23.96888 46 ft 88 kts
2026-04-28 14:50 56.91929 23.97055 114 ft 185 kts
2026-04-28 14:50 56.93323 23.97240 878 ft 205 kts
2026-04-28 14:50 56.94771 23.97316 2207 ft 215 kts
2026-04-28 14:51 56.96297 23.97480 3736 ft 223 kts
2026-04-28 14:51 56.97877 23.97371 5224 ft 232 kts 353°
2026-04-28 14:51 56.99390 23.96404 6586 ft 242 kts 328°
2026-04-28 14:51 57.00389 23.93832 8006 ft 256 kts 293°
2026-04-28 14:52 57.00326 23.90513 9322 ft 276 kts 256°
2026-04-28 14:52 56.99088 23.87742 10618 ft 292 kts 220°
2026-04-28 14:52 56.97308 23.85895 11960 ft 297 kts 211°
2026-04-28 14:52 56.95477 23.84032 13115 ft 304 kts 213°
2026-04-28 14:53 56.93850 23.81553 14218 ft 305 kts 233°
2026-04-28 14:53 56.92887 23.78202 15331 ft 301 kts 254°
2026-04-28 14:53 56.92527 23.74382 16375 ft 301 kts 271°
2026-04-28 14:53 56.92779 23.70663 17353 ft 301 kts 287°
2026-04-28 14:54 56.93410 23.66978 18342 ft 304 kts 293°
2026-04-28 14:54 56.93969 23.64933 18878 ft 304 kts 302°
2026-04-28 14:54 56.94377 23.63775 19203 ft 305 kts 307°
2026-04-28 14:54 56.95801 23.60850 20132 ft 306 kts 318°
2026-04-28 14:55 56.97300 23.58026 21001 ft 313 kts 311°
2026-04-28 14:55 56.98647 23.54865 21879 ft 316 kts 311°
2026-04-28 14:55 57.00053 23.51727 22678 ft 320 kts 312°
2026-04-28 14:55 57.01503 23.48594 23443 ft 324 kts 313°
2026-04-28 14:56 57.02987 23.45444 24184 ft 328 kts 313°
2026-04-28 14:56 57.04465 23.42281 24874 ft 333 kts 311°
2026-04-28 14:56 57.05853 23.38835 25574 ft 337 kts 309°
2026-04-28 14:56 57.07255 23.35358 26215 ft 341 kts 309°
2026-04-28 14:57 57.08681 23.31832 26869 ft 344 kts 309°
2026-04-28 14:57 57.09642 23.29460 27390 ft 342 kts 309°
2026-04-28 14:57 57.11522 23.24815 28384 ft 340 kts 309°
2026-04-28 14:57 57.12936 23.21318 29083 ft 339 kts 310°
2026-04-28 14:58 57.14342 23.17836 29766 ft 338 kts 310°
2026-04-28 14:58 57.15751 23.14345 30202 ft 341 kts 310°
2026-04-28 14:58 57.17202 23.10890 30235 ft 339 kts 311°
2026-04-28 14:59 57.20063 23.04095 30245 ft 337 kts 311°
2026-04-28 14:59 57.22931 22.97249 30246 ft 337 kts 311°
2026-04-28 15:00 57.25792 22.90398 30247 ft 337 kts 311°
2026-04-28 15:00 57.28643 22.83552 30249 ft 336 kts 311°
2026-04-28 15:00 57.29818 22.79769 30264 ft 341 kts 299°
2026-04-28 15:01 57.30798 22.75770 30258 ft 341 kts 298°
2026-04-28 15:01 57.32730 22.67736 30261 ft 342 kts 298°
2026-04-28 15:02 57.34269 22.59366 30265 ft 346 kts 289°
2026-04-28 15:02 57.35489 22.50732 30265 ft 346 kts 290°
2026-04-28 15:03 57.36748 22.42128 30290 ft 346 kts 290°
2026-04-28 15:03 57.38017 22.33518 30294 ft 346 kts 291°
2026-04-28 15:04 57.39274 22.24954 30298 ft 346 kts 291°
2026-04-28 15:04 57.40534 22.16330 30303 ft 347 kts 291°
2026-04-28 15:05 57.41791 22.07686 30307 ft 347 kts 290°
2026-04-28 15:05 57.43043 21.99025 30310 ft 347 kts 290°
2026-04-28 15:06 57.44284 21.90396 30312 ft 345 kts 291°
2026-04-28 15:06 57.45519 21.81760 30315 ft 345 kts 291°
2026-04-28 15:07 57.46744 21.73146 30315 ft 345 kts 291°
2026-04-28 15:07 57.47962 21.64541 30315 ft 345 kts 291°
2026-04-28 15:08 57.49173 21.55929 30316 ft 345 kts 291°
2026-04-28 15:08 57.50382 21.47288 30317 ft 345 kts 291°
2026-04-28 15:09 57.51582 21.38660 30317 ft 344 kts 291°
2026-04-28 15:09 57.52777 21.30026 30317 ft 343 kts 291°
2026-04-28 15:10 57.53953 21.21482 30318 ft 343 kts 291°
2026-04-28 15:10 57.55130 21.12879 30318 ft 342 kts 291°
2026-04-28 15:11 57.56298 21.04293 30316 ft 342 kts 291°
2026-04-28 15:11 57.57461 20.95698 30317 ft 342 kts 292°
2026-04-28 15:12 57.58616 20.87111 30317 ft 341 kts 292°
2026-04-28 15:12 57.59765 20.78518 30319 ft 341 kts 292°
2026-04-28 15:13 57.60906 20.69939 30320 ft 342 kts 292°
2026-04-28 15:13 57.61490 20.65546 30331 ft 357 kts 292°
2026-04-28 15:13 57.62091 20.60987 30325 ft 364 kts 292°
2026-04-28 15:14 57.63303 20.51755 30324 ft 367 kts 292°
2026-04-28 15:14 57.64508 20.42532 30326 ft 368 kts 292°
2026-04-28 15:14 57.65109 20.37923 30001 ft 366 kts 292°
2026-04-28 15:15 57.65722 20.33229 29094 ft 378 kts 292°
2026-04-28 15:15 57.66143 20.29973 28444 ft 385 kts 291°
2026-04-28 15:15 57.66984 20.23465 27155 ft 398 kts 291°
2026-04-28 15:15 57.67747 20.18451 26241 ft 398 kts 294°
2026-04-28 15:16 57.68528 20.13506 25615 ft 394 kts 294°
2026-04-28 15:16 57.69289 20.08635 25058 ft 387 kts 293°
2026-04-28 15:16 57.70032 20.03849 24450 ft 382 kts 293°
2026-04-28 15:16 57.70772 19.99067 23823 ft 383 kts 293°
2026-04-28 15:17 57.71510 19.94276 23182 ft 379 kts 293°
2026-04-28 15:17 57.72247 19.89534 22450 ft 381 kts 287°
2026-04-28 15:17 57.72975 19.84753 21621 ft 384 kts 287°
2026-04-28 15:17 57.73708 19.79950 20899 ft 383 kts 287°
2026-04-28 15:18 57.74437 19.75161 20248 ft 381 kts 287°
2026-04-28 15:18 57.75150 19.70468 19614 ft 378 kts 287°
2026-04-28 15:18 57.75864 19.65758 18974 ft 375 kts 287°
2026-04-28 15:18 57.76571 19.61079 18336 ft 372 kts 287°
2026-04-28 15:19 57.77271 19.56432 17701 ft 369 kts 287°
2026-04-28 15:19 57.77964 19.51820 17024 ft 367 kts 287°
2026-04-28 15:19 57.78655 19.47210 16261 ft 368 kts 287°
2026-04-28 15:19 57.79343 19.42604 15626 ft 365 kts 287°
2026-04-28 15:20 57.80021 19.38051 14995 ft 361 kts 287°
2026-04-28 15:20 57.80692 19.33539 14358 ft 358 kts 287°
2026-04-28 15:20 57.81357 19.29050 13712 ft 355 kts 287°
2026-04-28 15:20 57.82014 19.24607 13066 ft 352 kts 287°
2026-04-28 15:21 57.82664 19.20193 12460 ft 349 kts 287°
2026-04-28 15:21 57.83293 19.15923 12079 ft 332 kts 287°
2026-04-28 15:21 57.83891 19.11848 11697 ft 315 kts 287°
2026-04-28 15:21 57.84393 19.07948 11331 ft 302 kts 280°
2026-04-28 15:22 57.84237 19.04097 10963 ft 292 kts 259°
2026-04-28 15:22 57.83433 19.00640 10423 ft 290 kts 240°
2026-04-28 15:22 57.82195 18.97666 9861 ft 289 kts 231°
2026-04-28 15:22 57.80888 18.94931 9645 ft 276 kts 229°
2026-04-28 15:23 57.79606 18.92350 9548 ft 268 kts 229°
2026-04-28 15:23 57.78311 18.89790 9353 ft 274 kts 228°
2026-04-28 15:23 57.76976 18.87186 9032 ft 277 kts 227°
2026-04-28 15:23 57.75639 18.84599 8631 ft 275 kts 227°
2026-04-28 15:24 57.74306 18.82035 8220 ft 274 kts 227°
2026-04-28 15:24 57.72979 18.79489 7812 ft 272 kts 227°
2026-04-28 15:24 57.72104 18.77813 7521 ft 272 kts 227°
2026-04-28 15:24 57.70330 18.74425 6921 ft 272 kts 227°
2026-04-28 15:25 57.69457 18.72760 6652 ft 271 kts 227°
2026-04-28 15:25 57.68145 18.70258 6257 ft 268 kts 227°
2026-04-28 15:25 57.66844 18.67781 5868 ft 266 kts 227°
2026-04-28 15:25 57.65134 18.64531 5359 ft 263 kts 227°
2026-04-28 15:26 57.63858 18.62107 4979 ft 261 kts 227°
2026-04-28 15:26 57.62586 18.59694 4600 ft 259 kts 227°
2026-04-28 15:26 57.61336 18.57325 4314 ft 253 kts 227°
2026-04-28 15:26 57.60121 18.55026 4095 ft 245 kts 227°
2026-04-28 15:27 57.59337 18.53542 3959 ft 240 kts 227°
2026-04-28 15:27 57.58180 18.51357 3750 ft 228 kts 227°
2026-04-28 15:27 57.57110 18.49336 3572 ft 217 kts 227°
2026-04-28 15:27 57.56065 18.47364 3410 ft 211 kts 227°
2026-04-28 15:28 57.55024 18.45402 3268 ft 215 kts 227°
2026-04-28 15:28 57.53967 18.43410 2964 ft 218 kts 227°
2026-04-28 15:28 57.52846 18.41484 2600 ft 221 kts 218°
2026-04-28 15:28 57.51419 18.40572 2518 ft 218 kts 190°
2026-04-28 15:29 57.49938 18.40994 2493 ft 217 kts 159°
2026-04-28 15:29 57.48772 18.42715 2510 ft 214 kts 130°
2026-04-28 15:29 57.48151 18.45177 2503 ft 210 kts 103°
2026-04-28 15:29 57.48170 18.47836 2502 ft 205 kts 77°
2026-04-28 15:30 57.48784 18.50170 2506 ft 201 kts 53°
2026-04-28 15:30 57.49811 18.51878 2508 ft 198 kts 34°
2026-04-28 15:30 57.51019 18.53073 2506 ft 196 kts 25°
2026-04-28 15:30 57.52267 18.54097 2503 ft 196 kts 22°
2026-04-28 15:31 57.53527 18.55061 2502 ft 196 kts 21°
2026-04-28 15:31 57.54792 18.55991 2501 ft 196 kts 20°
2026-04-28 15:31 57.56063 18.56901 2501 ft 196 kts 20°
2026-04-28 15:31 57.57380 18.57457 2478 ft 196 kts
2026-04-28 15:32 57.58698 18.56867 2499 ft 197 kts 339°
2026-04-28 15:32 57.59754 18.55298 2500 ft 199 kts 315°
2026-04-28 15:32 57.60377 18.52972 2499 ft 203 kts 291°
2026-04-28 15:32 57.60421 18.50329 2499 ft 208 kts 266°
2026-04-28 15:33 57.59851 18.47842 2497 ft 213 kts 241°
2026-04-28 15:33 57.58737 18.46039 2506 ft 216 kts 214°
2026-04-28 15:33 57.57488 18.44939 2515 ft 216 kts 205°
2026-04-28 15:33 57.56953 18.44539 2511 ft 216 kts 203°
2026-04-28 15:34 57.55549 18.43534 2504 ft 216 kts 202°
2026-04-28 15:34 57.54139 18.42549 2501 ft 216 kts 201°
2026-04-28 15:34 57.52718 18.41615 2492 ft 217 kts 197°
2026-04-28 15:34 57.51239 18.41635 2497 ft 218 kts 170°
2026-04-28 15:35 57.49901 18.42879 2500 ft 216 kts 142°
2026-04-28 15:35 57.48743 18.47717 2501 ft 207 kts 88°
2026-04-28 15:35 57.49130 18.50235 2502 ft 202 kts 62°
2026-04-28 15:36 57.50053 18.52147 2503 ft 198 kts 38°
2026-04-28 15:36 57.51257 18.53367 2511 ft 197 kts 24°
2026-04-28 15:36 57.52513 18.54355 2505 ft 196 kts 21°
2026-04-28 15:36 57.53781 18.55293 2502 ft 196 kts 20°
2026-04-28 15:37 57.55051 18.56203 2501 ft 196 kts 20°
2026-04-28 15:37 57.56325 18.57102 2501 ft 196 kts 19°
2026-04-28 15:37 57.57642 18.57436 2491 ft 196 kts 358°
2026-04-28 15:37 57.58929 18.56639 2499 ft 197 kts 334°
2026-04-28 15:38 57.59923 18.54874 2500 ft 200 kts 310°
2026-04-28 15:38 57.60433 18.52450 2499 ft 204 kts 286°
2026-04-28 15:38 57.60352 18.49798 2499 ft 209 kts 261°
2026-04-28 15:38 57.59661 18.47403 2497 ft 214 kts 235°
2026-04-28 15:39 57.58461 18.45766 2520 ft 215 kts 211°
2026-04-28 15:39 57.57086 18.44639 2512 ft 216 kts 203°
2026-04-28 15:39 57.55684 18.43630 2504 ft 216 kts 202°
2026-04-28 15:39 57.54275 18.42644 2501 ft 216 kts 201°
2026-04-28 15:40 57.52862 18.41690 2496 ft 216 kts 199°
2026-04-28 15:40 57.51364 18.41583 2494 ft 218 kts 172°
2026-04-28 15:40 57.49999 18.42733 2500 ft 216 kts 145°
2026-04-28 15:40 57.49062 18.44856 2501 ft 212 kts 117°
2026-04-28 15:41 57.48739 18.47478 2501 ft 207 kts 90°
2026-04-28 15:41 57.49064 18.49999 2502 ft 203 kts 65°
2026-04-28 15:41 57.49940 18.51989 2503 ft 199 kts 40°
2026-04-28 15:41 57.51132 18.53260 2512 ft 197 kts 25°
2026-04-28 15:42 57.52389 18.54260 2505 ft 196 kts 21°
2026-04-28 15:42 57.53656 18.55201 2503 ft 196 kts 20°
2026-04-28 15:42 57.54927 18.56115 2502 ft 196 kts 20°
2026-04-28 15:42 57.56198 18.57014 2501 ft 196 kts 19°
2026-04-28 15:43 57.57526 18.57456 2485 ft 196 kts
2026-04-28 15:43 57.58827 18.56754 2499 ft 197 kts 336°
2026-04-28 15:43 57.59856 18.55065 2500 ft 200 kts 312°
2026-04-28 15:43 57.60414 18.52685 2499 ft 204 kts 288°
2026-04-28 15:44 57.60387 18.50033 2499 ft 208 kts 263°
2026-04-28 15:44 57.59761 18.47621 2497 ft 213 kts 238°
2026-04-28 15:44 57.58599 18.45899 2514 ft 216 kts 213°
2026-04-28 15:44 57.57232 18.44747 2513 ft 216 kts 204°
2026-04-28 15:45 57.55832 18.43734 2505 ft 216 kts 202°
2026-04-28 15:45 57.54425 18.42748 2502 ft 216 kts 201°
2026-04-28 15:45 57.53015 18.41779 2499 ft 216 kts 200°
2026-04-28 15:45 57.51523 18.41529 2489 ft 218 kts 175°
2026-04-28 15:46 57.50124 18.42561 2500 ft 216 kts 148°
2026-04-28 15:46 57.49131 18.44604 2501 ft 213 kts 120°
2026-04-28 15:46 57.48741 18.47196 2501 ft 208 kts 93°
2026-04-28 15:46 57.49008 18.49782 2502 ft 203 kts 67°
2026-04-28 15:47 57.49842 18.51841 2503 ft 199 kts 42°
2026-04-28 15:47 57.51017 18.53158 2514 ft 197 kts 26°
2026-04-28 15:47 57.52254 18.54156 2506 ft 196 kts 21°
2026-04-28 15:47 57.53517 18.55099 2503 ft 196 kts 20°
2026-04-28 15:48 57.54786 18.56014 2502 ft 196 kts 20°
2026-04-28 15:48 57.56073 18.56924 2501 ft 196 kts 19°
2026-04-28 15:48 57.57395 18.57468 2477 ft 196 kts
2026-04-28 15:48 57.58709 18.56858 2500 ft 197 kts 339°
2026-04-28 15:49 57.59759 18.55276 2500 ft 199 kts 315°
2026-04-28 15:49 57.60374 18.52953 2499 ft 203 kts 291°
2026-04-28 15:49 57.60411 18.50304 2499 ft 208 kts 266°
2026-04-28 15:49 57.59837 18.47820 2497 ft 213 kts 240°
2026-04-28 15:50 57.58714 18.46019 2507 ft 216 kts 214°
2026-04-28 15:50 57.57355 18.44840 2514 ft 216 kts 204°
2026-04-28 15:50 57.56199 18.43995 2506 ft 216 kts 202°
2026-04-28 15:50 57.54795 18.43006 2502 ft 216 kts 201°
2026-04-28 15:51 57.53384 18.42025 2499 ft 216 kts 201°
2026-04-28 15:51 57.51982 18.41018 2501 ft 216 kts 202°
2026-04-28 15:51 57.50579 18.40004 2479 ft 216 kts 202°
2026-04-28 15:51 57.49177 18.38995 2397 ft 216 kts 202°
2026-04-28 15:52 57.47818 18.37830 2245 ft 215 kts 214°
2026-04-28 15:52 57.46879 18.35735 2215 ft 211 kts 242°
2026-04-28 15:52 57.46542 18.33213 2195 ft 197 kts 268°
2026-04-28 15:52 57.46743 18.30744 2215 ft 191 kts 285°
2026-04-28 15:53 57.47129 18.28396 2207 ft 189 kts 291°
2026-04-28 15:53 57.47572 18.26149 2229 ft 182 kts 296°
2026-04-28 15:53 57.48394 18.24501 2205 ft 176 kts 325°
2026-04-28 15:53 57.49537 18.23759 2203 ft 175 kts 350°
2026-04-28 15:54 57.50739 18.23978 2215 ft 174 kts 10°
2026-04-28 15:54 57.51899 18.24621 2208 ft 174 kts 17°
2026-04-28 15:54 57.53037 18.25343 2199 ft 167 kts 18°
2026-04-28 15:54 57.54058 18.25975 2213 ft 145 kts 17°
2026-04-28 15:55 57.55002 18.26585 2216 ft 142 kts 18°
2026-04-28 15:55 57.55935 18.27240 2173 ft 144 kts 19°
2026-04-28 15:55 57.56872 18.27907 1985 ft 143 kts 19°
2026-04-28 15:55 57.57783 18.28555 1779 ft 134 kts 19°
2026-04-28 15:56 57.58605 18.29140 1553 ft 121 kts 19°
2026-04-28 15:56 57.59359 18.29677 1353 ft 113 kts 19°
2026-04-28 15:56 57.60084 18.30194 1210 ft 111 kts 19°
2026-04-28 15:56 57.60801 18.30734 1109 ft 111 kts 20°
2026-04-28 15:57 57.61524 18.31266 977 ft 111 kts 20°
2026-04-28 15:57 57.62245 18.31787 846 ft 111 kts 19°
2026-04-28 15:57 57.62971 18.32281 694 ft 110 kts 18°
2026-04-28 15:57 57.63687 18.32804 563 ft 111 kts 19°
2026-04-28 15:58 57.64411 18.33290 419 ft 111 kts 18°
2026-04-28 15:58 57.65121 18.33803 238 ft 105 kts 19°
2026-04-28 15:58 57.65722 18.34236 176 ft 54 kts 19°
2026-04-28 15:58 57.65902 18.34348 176 ft 16 kts 17°
2026-04-28 15:59 57.65962 18.34336 176 ft 2 kts 304°
2026-04-28 15:59 57.65969 18.34302 176 ft 8 kts 290°
2026-04-28 15:59 57.66019 18.34046 176 ft 23 kts 290°
2026-04-28 15:59 57.66038 18.33952 176 ft 0 kts 289°